Starlink 2754

operational
NORAD ID: 48641 Int'l Des: 2021-044 Owner: SPXS Country: US Constellation: starlink
LEOCIRCULARSTARLINK_TYPE

Über Starlink 2754

Beschreibung wird geladen...

Live-Position

3D-Globus wird geladen...

Nächste Überflüge

Höhenverlauf

Altitude vs Time

uPlot chart will show altitude changes over time

Zweizeiliger Elementsatz

1 48641U 21044D 25352.64055270 .00001836 00000-0 14209-3 0 9997
2 48641 53.0543 125.4632 0001313 91.1106 269.0033 15.06402612251495
Epoch: 18. Dez. 2025 • Age: 22 hours

Aktueller Status

Höhe 553.0 km
Geschwindigkeit 7.59 km/s
Subsatellitenpunkt -19.56°S, 174.15°E
Startdatum 26. Mai 2021
Alter 4.5 years
Typ internet

Technische Details

Klassifizierung Payload
Masse 260.00 kg
Trockenmasse 248.00 kg
Gesamtmasse 260.00 kg
Länge 0.20 m
Durchmesser 2.80 m
Spannweite 9.00 m
Form Box + pan
Hersteller SPXS
Bus-Typ Starlink
Phasenstatus In Orbit
Besitzer/Staat SPXS/US

Große Konstellationen

Loading constellations...